Home   Weather   Lynchburg   Past weeks

Flag for USA Past Weather in Lynchburg, Virginia, USA — Yesterday and Last 2 Weeks

Now
69 °F

Passing clouds.


Feels Like: 69 °F
Forecast: 42 / 65 °F
Wind: 15 mph from Southwest

Location: Lynchburg Regional Airport

Current Time: Feb 25, 2017 at 11:27:27 am

Latest Report: Feb 25, 2017 at 10:54 am


Visibility: 10 mi

Pressure: 29.61 "Hg

Humidity: 61%

Dew Point: 55 °F

Location of LynchburgLocation

Past Weather in Lynchburg — Graph

°F

Lynchburg Temperature Yesterday

Maximum temperature yesterday: 74 °F (at 2:54 pm)
Minimum temperature yesterday: 46 °F (at 5:54 am)
Average temperature yesterday: 63 °F

High & Low Weather Summary for the Past Weeks

 TemperatureHumidityPressure
High80 °F (Feb 12, 2:54 pm)100% (Feb 24, 5:54 am)30.45 "Hg (Feb 24, 5:54 am)
Low29 °F (Feb 16, 11:54 pm)15% (Feb 13, 3:54 pm)29.50 "Hg (Feb 15, 12:54 pm)
Average50 °F52%29.95 "Hg
* Reported Feb 10 9:54 am — Feb 25 9:54 am, Lynchburg, Weather by CustomWeather, © 2017

Note: Actual official high and low records may vary slightly from our data, if they occured in-between our weather recording intervals... More about our weather records

Advertising

Lynchburg Weather History for the Previous 24 Hours

Scroll right to see more
 ConditionsComfort  
Time TempWeatherWind HumidityBarometerVisibility
9:54 am
Sat, Feb 25
65 °FPartly sunny.10 mph70%29.65 "Hg10 mi
8:54 am63 °FPartly sunny.13 mph75%29.67 "Hg10 mi
8:37 am62 °FPartly sunny.12 mph78%29.69 "Hg10 mi
7:54 am60 °FSunny.9 mph83%29.67 "Hg10 mi
6:54 am59 °FSunny.15 mph84%29.66 "Hg10 mi
6:28 am58 °FPassing clouds.10 mph87%29.71 "Hg10 mi
5:54 am58 °FClear.10 mph87%29.70 "Hg10 mi
4:54 am59 °FPassing clouds.8 mph84%29.71 "Hg10 mi
3:54 am60 °FOvercast.9 mph80%29.72 "Hg10 mi
2:54 am60 °FMostly cloudy.8 mph78%29.74 "Hg10 mi
1:54 am60 °FPassing clouds.8 mph78%29.75 "Hg10 mi
12:54 am61 °FOvercast.9 mph75%29.76 "Hg10 mi
11:54 pm
Fri, Feb 24
62 °FOvercast.9 mph73%29.77 "Hg10 mi
10:54 pm63 °FPassing clouds.7 mph68%29.77 "Hg10 mi
9:54 pm59 °FPassing clouds.9 mph78%29.78 "Hg10 mi
8:54 pm61 °FClear.5 mph70%29.80 "Hg10 mi
7:54 pm63 °FClear.8 mph65%29.81 "Hg10 mi
6:54 pm66 °FClear.8 mph59%29.81 "Hg10 mi
5:54 pm68 °FSunny.7 mph53%29.81 "Hg10 mi
4:54 pm72 °FPassing clouds.13 mph46%29.81 "Hg10 mi
3:54 pm73 °FPartly sunny.13 mph44%29.82 "Hg10 mi
2:54 pm74 °FPassing clouds.13 mph43%29.83 "Hg10 mi
1:54 pm73 °FScattered clouds.10 mph46%29.84 "Hg10 mi
12:54 pm72 °FScattered clouds.12 mph49%29.87 "Hg10 mi
11:54 am71 °FPassing clouds.14 mph53%29.90 "Hg10 mi
Weather by CustomWeather, © 2017

See weather overviewHow to use our weather pages